Regional Weather Roundup
Issued by NWS

Home | Current Version | Previous Version | Graphics & Text | Print | Product List | Glossary On
Versions: 1 2 3 4 5 6 7 8 9 10 11 12 13 14 15 16 17 18 19 20 21 22 23 24 25 26 27 28 29 30 31 32 33 34 35 36 37 38 39 40 41 42 43 44 45 46 47 48 49 50
000
ASUS43 KMPX 281510
RWRMN
WEATHER ROUNDUP FOR MINNESOTA
NATIONAL WEATHER SERVICE TWIN CITIES/CHANHASSEN MN
1000 AM CDT SUN AUG 28 2016


NOTE: "FAIR" INDICATES FEW OR NO CLOUDS BELOW 12,000 FEET WITH NO
SIGNIFICANT WEATHER AND/OR OBSTRUCTIONS TO VISIBILITY. N/A MEANS
CURRENT SKY AND/OR WEATHER CONDITIONS ARE NOT AVAILABLE.

MNZ060>063-068>070-281600-
   Twin Cities Metro

CITY           SKY/WX    TMP DP  RH WIND       PRES   REMARKS
TWIN CITIES    CLOUDY    66  64  93 SE5       30.15F FOG
ST PAUL        CLOUDY    65  64  97 SE7       30.16F FOG
CRYSTAL        CLOUDY    65  62  90 SE6       30.13F FOG
BLAINE         FOG       66  66 100 SE8       30.14F VSB 1
LAKEVILLE      CLOUDY    64  64 100 SE3       30.15F FOG
EDEN PRAIRIE   CLOUDY    68  64  87 NE5       30.13F
LAKEVILLE      CLOUDY    64  64 100 SE3       30.15F FOG
SOUTH ST PAUL  CLOUDY    65  65  99 SE3       30.15F FOG
LAKE ELMO      FOG       63  63 100 E3        30.17F VSB 1/4
$$
MNZ001>005-007-008-013>017-022>024-027-028-281600-
   Northwest Minnesota

CITY           SKY/WX    TMP DP  RH WIND       PRES   REMARKS
BEMIDJI        CLOUDY    61  61 100 SE9       30.11S FOG
HALLOCK        SUNNY     68  64  88 S12G17    29.99S
ROSEAU         SUNNY     68  63  83 S9        30.05S
WARROAD        SUNNY     64  61  88 SE8       30.08R
THIEF RVR FALL SUNNY     69  63  81 S13       30.04S
CROOKSTON      SUNNY     70  63  78 S14       30.02S
FOSSTON        SUNNY     66  64  94 SE8       30.06F
DETROIT LAKES  MOSUNNY   66  63  88 SE14      30.07F
MOORHEAD       SUNNY     70  63  78 S12G20    30.03S
PARK RAPIDS    CLOUDY    64  60  87 SE10      30.11S
MAHNOMEN       FAIR      68  62  82 SE10G16   30.05S
$$
MNZ006-009>011-018-025>026-281600-
   North Central Minnesota

CITY           SKY/WX    TMP DP  RH WIND       PRES   REMARKS
BAUDETTE       CLOUDY    61  60  97 SE7       30.09F FOG
FLAG ISLAND    CLOUDY    63  61  94 S3        30.07S FOG
INTL FALLS     CLOUDY    59  58  96 VRB3      30.14R
WASKISH          N/A     63  63 100 SE8       30.11R
BIG FORK       CLOUDY    61  61 100 S3        30.15R FOG
LONGVILLE      CLOUDY    63  61  94 SE6       30.13S
GRAND RAPIDS   CLOUDY    61  60  97 S8        30.17S FOG
CRANE LAKE     CLOUDY    55  55 100 S3        30.17S
ORR            CLOUDY    57  55  94 CALM      30.13S FOG
COOK           CLOUDY    57  57 100 CALM      30.17R FOG
WALKER         CLOUDY    62  60  93 SE6       30.12S
$$
MNZ012-019>021-037-281600-
   Northeast Minnesota

CITY           SKY/WX    TMP DP  RH WIND       PRES   REMARKS
DULUTH         CLOUDY    60  60 100 SW3       30.18R FOG
ELY            CLOUDY    57  57 100 SW6       30.17R
HIBBING        CLOUDY    58  58 100 CALM      30.16S
EVELETH        CLOUDY    58  58  98 SW6       30.18R
DULUTH HARBOR  CLOUDY    63  61  94 SW5       30.17R
TWO HARBORS    CLOUDY    63  57  82 CALM      30.15S
SILVER BAY     CLOUDY    61  59  94 SW3       30.16S
GRAND MARAIS     N/A     63  57  81 SW13      30.16R
G MARAIS ARPRT CLOUDY    63  54  72 CALM      30.19R
$$
MNZ029>031-032-039>041-046>048-054>057-064-281600-
   West Central Minnesota

CITY           SKY/WX    TMP DP  RH WIND       PRES   REMARKS
FERGUS FALLS   SUNNY     70  64  83 SE14      30.07S
WHEATON        SUNNY     72  64  78 SE8       30.05S
MORRIS         CLOUDY    66  64  94 SE8       30.05F
ALEXANDRIA     CLOUDY    67  64  90 SE8       30.11S
ELBOW LAKE     FAIR      69  62  80 E13       30.06F
WADENA         CLOUDY    64  63  94 SE9       30.10S
GLENWOOD       CLOUDY    64  63  94 E6        30.11S
APPLETON       CLOUDY    70  61  73 SE9       30.06F
BENSON         TSTM      64  61  88 S12G17    30.08S
ORTONVILLE     MOSUNNY   70  61  73 SE9G16    30.05S
MADISON        SUNNY     72  64  78 SE14      30.08S
WILLMAR        TSTM      64  64 100 SW5       30.13R
$$
MNZ033>034-036-042>043-049>051-058-059-281600-
   Central Minnesota

CITY           SKY/WX    TMP DP  RH WIND       PRES   REMARKS
ST CLOUD       CLOUDY    62  62 100 VRB6      30.12S FOG
SAUK CENTRE    FAIR      64  63  96 E7        30.12R
PAYNESVILLE    CLOUDY    63  63 100 CALM      30.13R
AITKIN         CLOUDY    66  61  82 SE7       30.14R
PINE RIVER     CLOUDY    64  61  88 SE9       30.16S
BRAINERD       CLOUDY    67  63  87 SE6       30.13F
STAPLES        CLOUDY    63  63 100 S8        30.12R
LONG PRAIRIE   CLOUDY    63  63 100 E6        30.13R
LITTLE FALLS   CLOUDY    63  61  94 SE7       30.12F FOG
LITCHFIELD     DRIZZLE   66  64  94 S3        30.12F
BUFFALO        LGT RAIN  64  63  95 SE3       30.13F
MAPLE LAKE     LGT RAIN  65  64  99 S3        30.13F
HUTCHINSON     SUNNY     73  69  87 S7        30.14R
$$
MNZ037-044-045-052-053-281600-
   East Central Minnesota

CITY           SKY/WX    TMP DP  RH WIND       PRES   REMARKS
PRINCETON      CLOUDY    64  63  94 E5        30.14R FOG
MORA           CLOUDY    61  61 100 SE5       30.17S FOG
CAMBRIDGE      CLOUDY    64  63  94 E7        30.12F FOG
RUSH CITY      RAIN      61  60  97 CALM      30.16F
MOOSE LAKE     CLOUDY    63  59  88 S3        30.15S
HINCKLEY       CLOUDY    63  63 100 E3        30.16S
CLOQUET        CLOUDY    61  59  94 CALM      30.17R FOG
MCGREGOR       CLOUDY    63  61  94 S3        30.16R
$$
MNZ071>073-080-081-089-090-097-098-281600-
   Southwest Minnesota

CITY           SKY/WX    TMP DP  RH WIND       PRES   REMARKS
MONTEVIDEO     CLOUDY    66  63  88 S12       30.12R THUNDER
GRANITE FALLS  CLOUDY    70  66  87 NE12      30.14R
CANBY          PTSUNNY   70  65  85 E15       30.10S
MARSHALL       PTSUNNY   69  66  90 SE12      30.11R
REDWOOD FALLS  SUNNY     72  66  81 SE12      30.13R
OLIVIA         CLOUDY    73  68  83 S7        30.13R
PIPESTONE      SUNNY     73  68  83 S9        30.10S
WINDOM         SUNNY     75  66  73 SE6       30.14S
WORTHINGTON    MOSUNNY   73  69  87 S7        30.13S
JACKSON          N/A     73  66  78 S7        30.14R
TRACY          PTSUNNY   69  66  90 SE10      30.13S
SLAYTON        PTSUNNY   70  66  88 E5        30.14R
$$
MNZ065>067-074>077-082>085-091>093-281600-
   South Central Minnesota

CITY           SKY/WX    TMP DP  RH WIND       PRES   REMARKS
MANKATO        SUNNY     70  66  88 CALM      30.16R
NEW ULM          N/A     66  66 100 E7        30.15S
ST JAMES       CLOUDY    64  63  94 CALM      30.16R
FAIRMONT       SUNNY     73  69  87 S7        30.15R
GLENCOE        CLOUDY    68  68 100 S7        30.14R
FARIBAULT      SUNNY     72  72 100 SE3       30.16S
OWATONNA       SUNNY     73  68  83 S5        30.17R
WASECA         SUNNY     72  68  88 SE5       30.18R
ALBERT LEA     MOSUNNY   72  70  94 SE5       30.18R
$$
MNZ078>079-086>088-094>096-281600-
   Southeast Minnesota

CITY           SKY/WX    TMP DP  RH WIND       PRES   REMARKS
ROCHESTER      CLOUDY    68  67  96 S6        30.20R
RED WING       CLOUDY    68  66  94 E3        30.17R
STANTON        MOSUNNY   70  68  94 CALM      30.16R
DODGE CENTER   SUNNY     75  68  78 S6        30.19R
WINONA         CLOUDY    68  68 100 E6        30.19S
AUSTIN         CLOUDY    70  68  94 CALM      30.19R
PRESTON        CLOUDY    66  65  96 CALM      30.21R
$$
ABBREVIATIONS USED IN REMARKS
   TC - TEMPERATURES IN CELSIUS
  WCI - WIND CHILL INDEX
   HX - HEAT INDEX
  VSB - VISIBILITY
$$




USA.gov is the U.S. government's official web portal to all federal, state and local government web resources and services.